Location: *
(51.0333°S, 178.4667°E)
Time: 05:08:17
(UTC+00:00)

Cosmos 1943 - Pass Details

Date: 15 November 2019
Orbit: 835 x 848 km, 71.0° (Epoch: 08 December)

Event Time Altitude Azimuth Distance (km) Brightness Sun altitude
Rises 09:16:51 0° 209° (SSW) 3,444 8.3 -12.8°
Reaches altitude 10° 09:19:25 10° 202° (SSW) 2,506 7.0 -13.0°
Maximum altitude 09:24:58 46° 129° (SE) 1,138 3.9 -13.5°
Enters shadow 09:29:14 17° 61° (ENE) 2,059 4.7 -13.9°
